TimePDT,TemperatureF,Dew PointF,Humidity,Sea Level PressureIn,VisibilityMPH,Wind Direction,Wind SpeedMPH,Gust SpeedMPH,PrecipitationIn,Events,Conditions,WindDirDegrees,DateUTC
12:56 AM,48.0,39.0,71,30.00,10.0,Calm,Calm,-,N/A,,Clear,0,2013-10-11 07:56:00
1:56 AM,45.0,37.0,74,30.01,10.0,Calm,Calm,-,N/A,,Clear,0,2013-10-11 08:56:00
2:56 AM,46.0,37.9,73,30.01,10.0,Calm,Calm,-,N/A,,Clear,0,2013-10-11 09:56:00
3:56 AM,41.0,37.0,86,30.02,10.0,Calm,Calm,-,N/A,,Clear,0,2013-10-11 10:56:00
4:56 AM,39.9,36.0,86,30.03,10.0,Calm,Calm,-,N/A,,Clear,0,2013-10-11 11:56:00
5:56 AM,39.9,36.0,86,30.04,10.0,Calm,Calm,-,N/A,,Clear,0,2013-10-11 12:56:00
6:56 AM,39.0,36.0,89,30.05,10.0,Calm,Calm,-,N/A,,Clear,0,2013-10-11 13:56:00
7:56 AM,39.9,36.0,86,30.06,10.0,Calm,Calm,-,N/A,,Clear,0,2013-10-11 14:56:00
8:56 AM,46.0,37.9,73,30.09,10.0,Calm,Calm,-,N/A,,Clear,0,2013-10-11 15:56:00
9:56 AM,52.0,39.0,61,30.08,10.0,Calm,Calm,-,N/A,,Clear,0,2013-10-11 16:56:00
10:56 AM,60.1,39.9,47,30.07,10.0,Calm,Calm,-,N/A,,Clear,0,2013-10-11 17:56:00
11:56 AM,64.9,39.9,40,30.05,10.0,East,3.5,-,N/A,,Clear,90,2013-10-11 18:56:00
12:56 PM,69.1,39.0,33,30.02,10.0,Calm,Calm,-,N/A,,Clear,0,2013-10-11 19:56:00
1:56 PM,73.9,37.9,27,29.99,10.0,Variable,3.5,-,N/A,,Clear,0,2013-10-11 20:56:00
2:56 PM,75.0,39.0,27,29.97,10.0,Calm,Calm,-,N/A,,Clear,0,2013-10-11 21:56:00
3:56 PM,75.0,42.1,31,29.97,10.0,NNW,10.4,-,N/A,,Clear,330,2013-10-11 22:56:00
4:56 PM,73.0,42.1,33,29.96,10.0,West,8.1,-,N/A,,Clear,260,2013-10-11 23:56:00
5:56 PM,69.1,43.0,39,29.96,10.0,NE,5.8,-,N/A,,Clear,50,2013-10-12 00:56:00
6:56 PM,63.0,42.1,46,29.98,10.0,North,5.8,-,N/A,,Clear,360,2013-10-12 01:56:00
7:56 PM,59.0,42.1,53,30.00,10.0,Calm,Calm,-,N/A,,Clear,0,2013-10-12 02:56:00
8:56 PM,57.0,42.1,57,30.00,10.0,Calm,Calm,-,N/A,,Clear,0,2013-10-12 03:56:00
9:56 PM,54.0,41.0,62,30.01,10.0,Calm,Calm,-,N/A,,Clear,0,2013-10-12 04:56:00
10:56 PM,52.0,42.1,69,30.02,10.0,Calm,Calm,-,N/A,,Clear,0,2013-10-12 05:56:00
11:56 PM,48.0,42.1,80,30.01,10.0,Calm,Calm,-,N/A,,Clear,0,2013-10-12 06:56:00